Voltar ao catálogo

LEMUR 2 THERMORAPTOR

AtivoMeteoSSO
NORAD 63354·PAYLOAD·🇺🇸 United States

Lançado Mar 26, 2025 de Rocket Lab Launch Complex 1

Loading…

Próximas Passagens (próximas 24 horas)

TLE

AtualizadoSource: Space-Track

Época: Sep 14, 2026, 20:56 UTC

1 63354U 25061D   26257.87223511  .00003895  00000-0  21358-3 0  9993
2 63354  97.5804 233.5179 0017390 310.2110  49.7600 15.14653058 81186

Acompanhe LEMUR 2 THERMORAPTOR em tempo real com AllMySat

Download on the App Store